Location: Czernica
(51.0462°N, 17.2458°E)
Time: 10:56:15
(UTC+01:00)

ISS - Pass Details

Date: 25 January 2019
Orbit: 403 x 411 km, 51.6° (Epoch: 16 February)

Event Time Altitude Azimuth Distance (km) Brightness Sun altitude
Rises 18:28:50 0° 230° (SW) 2,328 1.0 -18.5°
Reaches altitude 10° 18:30:59 10° 223° (SW) 1,471 -0.3 -18.9°
Enters shadow 18:33:51 38° 165° (SSE) 642 -3.0 -19.3°
